GW2584 Weather Reports


Display with metric or nautical units.
time (UTC)temp
F
wind
direction
speed
MPH
gust
MPH
rain 1hr
in
rain 24hr
in
rain mn
in
humidity
%
barometer
mb
20260904080105 63 220 0.0 4.0 0.00 0.00 0.00 33 1019.7
20260904074606 64 213 1.0 5.0 0.00 0.00 0.00 33 1019.8
20260904073103 65 0 0.0 6.0 0.00 0.00 0.00 33 1019.9
20260904071608 66 0 0.0 5.0 0.00 0.00 0.00 33 1019.9
20260904070114 66 0 0.0 1.0 0.00 0.00 0.00 33 1019.8
20260904064606 65 203 0.0 1.0 0.00 0.00 0.00 34 1019.9
20260904063123 66 294 2.0 5.0 0.00 0.00 0.00 33 1020.0
20260904061608 67 0 0.0 3.0 0.00 0.00 0.00 32 1019.7
20260904060106 67 248 0.0 3.0 0.00 0.00 0.00 32 1019.7
20260904054612 68 226 2.0 3.0 0.00 0.00 0.00 31 1019.6
20260904053104 69 241 0.0 4.0 0.00 0.00 0.00 31 1019.7
20260904051610 69 0 0.0 6.0 0.00 0.00 0.00 31 1019.6
20260904050108 70 205 3.0 7.0 0.00 0.00 0.00 30 1019.8
20260904044608 70 192 4.0 9.0 0.00 0.00 0.00 31 1019.9
20260904043103 70 220 3.0 9.0 0.00 0.00 0.00 31 1020.0
20260904041604 70 214 3.0 8.0 0.00 0.00 0.00 31 1020.2
20260904040110 70 0 2.0 7.0 0.00 0.00 0.00 31 1020.2
20260904034608 70 192 3.0 7.0 0.00 0.00 0.00 31 1020.3
20260904033102 70 216 2.0 6.0 0.00 0.00 0.00 31 1020.4
20260904031612 70 0 0.0 4.0 0.00 0.00 0.00 32 1020.5
20260904030110 70 0 0.0 4.0 0.00 0.00 0.00 31 1020.6
20260904024606 70 219 0.0 3.0 0.00 0.00 0.00 31 1020.6
20260904023104 71 231 0.0 1.0 0.00 0.00 0.00 30 1020.3
20260904021609 72 0 0.0 0.0 0.00 0.00 0.00 30 1020.1
20260904020120 72 0 0.0 3.0 0.00 0.00 0.00 28 1020.1
20260904014626 73 219 0.0 1.0 0.00 0.00 0.00 26 1020.0
20260904013109 75 0 0.0 4.0 0.00 0.00 0.00 24 1019.9
20260904011603 75 0 0.0 0.0 0.00 0.00 0.00 24 1019.8
20260904010106 76 0 0.0 4.0 0.00 0.00 0.00 23 1019.7
20260904004608 77 344 1.0 4.0 0.00 0.00 0.00 23 1019.6
20260904003106 78 37 2.0 5.0 0.00 0.00 0.00 22 1019.6
20260904001602 79 340 1.0 6.0 0.00 0.00 0.00 21 1019.4
20260904000124 80 76 2.0 6.0 0.00 0.00 0.00 21 1019.4
20260903234608 81 6 1.0 6.0 0.00 0.00 0.00 20 1019.4
20260903233105 80 12 0.0 7.0 0.00 0.00 0.00 21 1019.4
20260903231606 80 11 5.0 10.0 0.00 0.00 0.00 21 1019.3
20260903230114 81 76 3.0 9.0 0.00 0.00 0.00 21 1019.4
20260903224627 80 213 4.0 9.0 0.00 0.00 0.00 21 1019.3
20260903223104 80 347 4.0 12.0 0.00 0.00 0.00 21 1019.4
20260903221605 79 12 2.0 10.0 0.00 0.00 0.00 22 1019.5
20260903220107 79 23 5.0 14.0 0.00 0.00 0.00 21 1019.6
20260903214613 80 97 3.0 10.0 0.00 0.00 0.00 21 1019.6
20260903213117 80 101 6.0 12.0 0.00 0.00 0.00 21 1019.6
20260903211610 80 101 4.0 14.0 0.00 0.00 0.00 21 1019.8
20260903210129 81 352 3.0 9.0 0.00 0.00 0.00 21 1019.9
20260903204606 80 19 5.0 11.0 0.00 0.00 0.00 22 1020.1
20260903203115 80 70 5.0 10.0 0.00 0.00 0.00 22 1020.1
20260903201606 80 93 4.0 13.0 0.00 0.00 0.00 22 1020.3
20260903200104 80 27 4.0 9.0 0.00 0.00 0.00 23 1020.3
20260903194602 78 69 4.0 16.0 0.00 0.00 0.00 23 1020.4
20260903193106 79 64 3.0 16.0 0.00 0.00 0.00 23 1020.4
20260903191603 79 51 2.0 13.0 0.00 0.00 0.00 23 1020.6
20260903190107 78 6 5.0 15.0 0.00 0.00 0.00 23 1020.6
20260903184606 78 43 4.0 11.0 0.00 0.00 0.00 24 1020.8
20260903183106 77 25 5.0 12.0 0.00 0.00 0.00 25 1020.9
20260903181609 76 90 6.0 13.0 0.00 0.00 0.00 26 1021.2
20260903180107 77 84 7.0 18.0 0.00 0.00 0.00 25 1021.4
20260903174607 80 46 5.0 9.0 0.00 0.00 0.00 23 1021.4
20260903173104 80 231 1.0 7.0 0.00 0.00 0.00 21 1021.4
20260903171614 79 239 2.0 11.0 0.00 0.00 0.00 22 1021.5
20260903170107 79 210 1.0 10.0 0.00 0.00 0.00 22 1021.7
20260903164623 77 38 2.0 11.0 0.00 0.00 0.00 23 1021.6
20260903163105 77 20 3.0 9.0 0.00 0.00 0.00 23 1021.7
20260903161602 78 187 2.0 11.0 0.00 0.00 0.00 23 1021.5
20260903160129 76 0 2.0 14.0 0.00 0.00 0.00 26 1021.6
20260903154611 75 117 3.0 13.0 0.00 0.00 0.00 27 1021.7
20260903153108 74 274 5.0 11.0 0.00 0.00 0.00 27 1021.7
20260903151603 74 168 2.0 10.0 0.00 0.00 0.00 28 1021.7
20260903150108 73 238 4.0 10.0 0.00 0.00 0.00 30 1021.9
20260903144607 72 190 5.0 12.0 0.00 0.00 0.00 31 1021.7
20260903143112 71 101 5.0 11.0 0.00 0.00 0.00 32 1021.6
20260903141614 71 163 6.0 13.0 0.00 0.00 0.00 33 1021.6
20260903140109 70 127 4.0 12.0 0.00 0.00 0.00 34 1021.7
20260903134605 69 157 3.0 10.0 0.00 0.00 0.00 34 1021.6
20260903133108 69 120 2.0 11.0 0.00 0.00 0.00 35 1021.3
20260903131607 68 157 3.0 10.0 0.00 0.00 0.00 36 1021.3
20260903130105 66 188 1.0 6.0 0.00 0.00 0.00 37 1021.2
20260903124607 64 181 3.0 7.0 0.00 0.00 0.00 39 1021.0
20260903123107 64 180 3.0 10.0 0.00 0.00 0.00 40 1020.8
20260903121606 63 196 3.0 7.0 0.00 0.00 0.00 40 1020.7
20260903120107 63 203 2.0 8.0 0.00 0.00 0.00 41 1020.7
20260903114607 63 0 2.0 5.0 0.00 0.00 0.00 42 1020.5
20260903113103 62 218 0.0 4.0 0.00 0.00 0.00 43 1020.5
20260903111604 62 0 0.0 4.0 0.00 0.00 0.00 45 1020.4
20260903110106 62 202 2.0 9.0 0.00 0.00 0.00 44 1020.5
20260903104606 61 213 2.0 5.0 0.00 0.00 0.00 47 1020.6
20260903103106 60 243 0.0 4.0 0.00 0.00 0.00 47 1020.6
20260903101611 61 221 3.0 6.0 0.00 0.00 0.00 46 1020.5
20260903100104 61 0 0.0 5.0 0.00 0.00 0.00 46 1020.6
20260903094612 63 198 5.0 12.0 0.00 0.00 0.00 44 1020.7
20260903093114 60 191 2.0 5.0 0.00 0.00 0.00 46 1020.8
20260903091603 62 210 3.0 9.0 0.00 0.00 0.00 43 1020.9
20260903084601 62 200 2.0 9.0 0.00 0.00 0.00 42 1020.8
20260903083107 63 237 1.0 5.0 0.00 0.00 0.00 40 1020.8
20260903081603 62 186 1.0 5.0 0.00 0.00 0.00 40 1020.7